TimeMDT,TemperatureF,Dew PointF,Humidity,Sea Level PressureIn,VisibilityMPH,Wind Direction,Wind SpeedMPH,Gust SpeedMPH,PrecipitationIn,Events,Conditions,WindDirDegrees,DateUTC
12:53 AM,48.0,35.1,61,29.82,10.0,Calm,Calm,-,N/A,,Partly Cloudy,0,2012-10-12 06:53:00
1:53 AM,46.9,36.0,66,29.82,10.0,SE,4.6,-,N/A,,Scattered Clouds,130,2012-10-12 07:53:00
2:53 AM,48.0,39.0,71,29.81,10.0,Calm,Calm,-,N/A,,Partly Cloudy,0,2012-10-12 08:53:00
3:53 AM,46.0,36.0,68,29.80,10.0,Calm,Calm,-,N/A,,Partly Cloudy,0,2012-10-12 09:53:00
4:53 AM,46.0,39.0,76,29.80,10.0,NW,3.5,-,N/A,,Scattered Clouds,320,2012-10-12 10:53:00
5:53 AM,43.0,37.9,82,29.82,10.0,Calm,Calm,-,N/A,,Mostly Cloudy,0,2012-10-12 11:53:00
6:53 AM,43.0,36.0,76,29.84,10.0,Calm,Calm,-,N/A,,Partly Cloudy,0,2012-10-12 12:53:00
7:53 AM,45.0,37.9,76,29.86,10.0,ESE,4.6,-,N/A,,Overcast,110,2012-10-12 13:53:00
8:53 AM,48.0,39.9,74,29.86,10.0,Calm,Calm,-,0.00,Rain,Light Rain,0,2012-10-12 14:53:00
9:53 AM,53.1,41.0,64,29.85,10.0,Calm,Calm,-,0.00,,Overcast,0,2012-10-12 15:53:00
11:53 AM,68.0,39.0,35,29.81,10.0,NW,6.9,-,N/A,,Clear,320,2012-10-12 17:53:00
12:53 PM,69.1,37.9,32,29.80,10.0,WNW,8.1,-,N/A,,Clear,300,2012-10-12 18:53:00
1:53 PM,70.0,39.0,32,29.78,10.0,West,4.6,-,N/A,,Clear,260,2012-10-12 19:53:00
2:53 PM,72.0,39.9,31,29.75,10.0,WSW,6.9,-,N/A,,Clear,240,2012-10-12 20:53:00
3:53 PM,73.0,39.9,30,29.73,10.0,West,9.2,-,N/A,,Clear,260,2012-10-12 21:53:00
4:53 PM,72.0,39.0,30,29.73,10.0,West,9.2,-,N/A,,Partly Cloudy,260,2012-10-12 22:53:00
5:53 PM,70.0,37.9,31,29.75,9.0,West,8.1,-,N/A,,Clear,270,2012-10-12 23:53:00
6:53 PM,63.0,37.9,40,29.77,10.0,WSW,3.5,-,N/A,,Clear,250,2012-10-13 00:53:00
8:53 PM,51.1,39.9,66,29.82,10.0,SW,9.2,-,N/A,,Clear,220,2012-10-13 02:53:00
9:53 PM,55.0,37.0,51,29.82,10.0,SW,10.4,-,N/A,,Clear,220,2012-10-13 03:53:00
10:53 PM,53.1,34.0,48,29.83,10.0,SW,11.5,-,N/A,,Scattered Clouds,220,2012-10-13 04:53:00
11:53 PM,55.0,30.9,40,29.82,10.0,WSW,12.7,18.4,N/A,,Clear,240,2012-10-13 05:53:00